TimeCDT,TemperatureF,Dew PointF,Humidity,Sea Level PressureIn,VisibilityMPH,Wind Direction,Wind SpeedMPH,Gust SpeedMPH,PrecipitationIn,Events,Conditions,WindDirDegrees,DateUTC
12:15 AM,65.3,55.4,70,30.01,10.0,North,5.8,-,N/A,,Clear,10,2013-06-02 05:15:00
12:35 AM,65.1,55.4,71,30.01,10.0,North,4.6,-,N/A,,Clear,10,2013-06-02 05:35:00
12:55 AM,64.4,55.2,72,30.01,10.0,North,4.6,-,N/A,,Clear,360,2013-06-02 05:55:00
1:15 AM,63.1,55.4,76,30.01,10.0,North,3.5,-,N/A,,Clear,350,2013-06-02 06:15:00
1:35 AM,63.0,55.4,76,30.00,10.0,North,3.5,-,N/A,,Clear,360,2013-06-02 06:35:00
1:55 AM,62.4,55.4,78,30.01,10.0,North,3.5,-,N/A,,Clear,360,2013-06-02 06:55:00
2:15 AM,61.7,55.0,79,30.01,10.0,Calm,Calm,-,N/A,,Clear,0,2013-06-02 07:15:00
2:35 AM,61.2,54.5,79,30.02,7.0,Calm,Calm,-,N/A,,Clear,0,2013-06-02 07:35:00
2:55 AM,60.8,54.5,80,30.02,10.0,Calm,Calm,-,N/A,,Clear,0,2013-06-02 07:55:00
3:15 AM,60.1,55.0,83,30.03,10.0,Calm,Calm,-,N/A,,Clear,0,2013-06-02 08:15:00
3:35 AM,59.5,54.9,84,30.03,10.0,NNW,3.5,-,N/A,,Clear,330,2013-06-02 08:35:00
3:55 AM,59.2,54.7,85,30.03,10.0,NNW,3.5,-,N/A,,Clear,330,2013-06-02 08:55:00
4:15 AM,59.2,54.7,85,30.04,10.0,Calm,Calm,-,N/A,,Clear,0,2013-06-02 09:15:00
4:35 AM,59.4,55.0,86,30.05,10.0,Calm,Calm,-,N/A,,Clear,0,2013-06-02 09:35:00
4:55 AM,60.1,55.4,85,30.05,10.0,North,6.9,-,N/A,,Clear,10,2013-06-02 09:55:00
5:15 AM,60.6,55.6,83,30.05,10.0,NNE,8.1,-,N/A,,Clear,20,2013-06-02 10:15:00
5:35 AM,60.1,55.4,85,30.07,10.0,NNW,6.9,-,N/A,,Clear,340,2013-06-02 10:35:00
5:55 AM,59.4,55.4,87,30.07,10.0,NNW,5.8,-,N/A,,Clear,330,2013-06-02 10:55:00
6:15 AM,59.0,54.7,86,30.07,10.0,NNW,5.8,-,N/A,,Clear,340,2013-06-02 11:15:00
6:35 AM,59.0,55.4,88,30.07,10.0,NNW,5.8,-,N/A,,Clear,340,2013-06-02 11:35:00
8:56 AM,68.0,53.6,60,30.10,10.0,NW,6.9,-,N/A,,Clear,320,2013-06-02 13:56:00
9:55 AM,71.6,66.2,83,30.11,5.0,North,12.7,16.1,N/A,,Haze,350,2013-06-02 14:55:00
11:55 AM,75.2,42.8,31,30.10,10.0,NNW,13.8,24.2,N/A,,Clear,340,2013-06-02 16:55:00
12:55 PM,75.2,46.4,36,30.08,10.0,NW,11.5,17.3,N/A,,Clear,320,2013-06-02 17:55:00
1:55 PM,77.0,46.4,34,30.06,10.0,NW,5.8,-,N/A,,Clear,310,2013-06-02 18:55:00
2:55 PM,78.8,46.4,32,30.03,10.0,North,9.2,-,N/A,,Clear,350,2013-06-02 19:55:00
3:55 PM,80.6,44.6,28,30.01,10.0,NNW,8.1,-,N/A,,Clear,340,2013-06-02 20:55:00
11:35 PM,63.7,55.4,74,30.00,10.0,East,4.6,-,N/A,,Clear,80,2013-06-03 04:35:00
11:55 PM,63.1,54.9,74,30.00,10.0,East,3.5,-,N/A,,Clear,80,2013-06-03 04:55:00